TimeCDT,TemperatureF,Dew PointF,Humidity,Sea Level PressureIn,VisibilityMPH,Wind Direction,Wind SpeedMPH,Gust SpeedMPH,PrecipitationIn,Events,Conditions,WindDirDegrees,DateUTC
12:11 AM,28.4,21.2,74,30.32,10.0,Calm,Calm,-,N/A,,Scattered Clouds,0,2012-10-28 05:11:00
12:32 AM,28.4,21.2,74,30.32,10.0,Calm,Calm,-,N/A,,Scattered Clouds,0,2012-10-28 05:32:00
12:51 AM,28.4,21.2,74,30.32,10.0,Calm,Calm,-,N/A,,Mostly Cloudy,0,2012-10-28 05:51:00
1:11 AM,28.4,23.0,80,30.32,10.0,Calm,Calm,-,N/A,,Overcast,0,2012-10-28 06:11:00
1:31 AM,28.4,23.0,80,30.32,10.0,Calm,Calm,-,N/A,,Overcast,0,2012-10-28 06:31:00
1:51 AM,28.4,23.0,80,30.31,10.0,Calm,Calm,-,N/A,,Overcast,0,2012-10-28 06:51:00
2:11 AM,28.4,23.0,80,30.31,10.0,Calm,Calm,-,N/A,,Overcast,0,2012-10-28 07:11:00
2:31 AM,28.4,23.0,80,30.31,10.0,Calm,Calm,-,N/A,,Mostly Cloudy,0,2012-10-28 07:31:00
2:51 AM,28.4,23.0,80,30.31,10.0,SSE,3.5,-,N/A,,Overcast,160,2012-10-28 07:51:00
3:11 AM,28.4,23.0,80,30.31,10.0,SSE,3.5,-,N/A,,Overcast,150,2012-10-28 08:11:00
3:31 AM,30.2,23.0,75,30.30,10.0,SE,3.5,-,N/A,,Overcast,140,2012-10-28 08:31:00
3:51 AM,30.2,23.0,75,30.30,10.0,Calm,Calm,-,N/A,,Mostly Cloudy,0,2012-10-28 08:51:00
4:11 AM,28.4,24.8,86,30.30,10.0,Calm,Calm,-,N/A,,Mostly Cloudy,0,2012-10-28 09:11:00
4:31 AM,28.4,24.8,86,30.30,10.0,Calm,Calm,-,N/A,,Scattered Clouds,0,2012-10-28 09:31:00
4:52 AM,28.4,24.8,86,30.30,10.0,Calm,Calm,-,N/A,,Scattered Clouds,0,2012-10-28 09:52:00
5:11 AM,28.4,24.8,86,30.30,10.0,Calm,Calm,-,N/A,,Mostly Cloudy,0,2012-10-28 10:11:00
5:31 AM,26.6,23.0,86,30.30,10.0,Calm,Calm,-,N/A,,Overcast,0,2012-10-28 10:31:00
5:52 AM,26.6,23.0,86,30.30,10.0,Calm,Calm,-,N/A,,Overcast,0,2012-10-28 10:52:00
6:11 AM,26.6,23.0,86,30.30,10.0,Calm,Calm,-,N/A,,Scattered Clouds,0,2012-10-28 11:11:00
6:31 AM,26.6,21.2,80,30.30,10.0,Calm,Calm,-,N/A,,Mostly Cloudy,0,2012-10-28 11:31:00
6:51 AM,26.6,21.2,80,30.30,10.0,Calm,Calm,-,N/A,,Overcast,0,2012-10-28 11:51:00
7:11 AM,26.6,23.0,86,30.30,10.0,SE,3.5,-,N/A,,Overcast,140,2012-10-28 12:11:00
7:31 AM,28.4,23.0,80,30.31,10.0,SE,4.6,-,N/A,,Overcast,140,2012-10-28 12:31:00
7:51 AM,28.4,23.0,80,30.31,10.0,SSE,4.6,-,N/A,,Mostly Cloudy,150,2012-10-28 12:51:00
8:11 AM,28.4,23.0,80,30.32,10.0,SSE,4.6,-,N/A,,Mostly Cloudy,150,2012-10-28 13:11:00
8:31 AM,28.4,24.8,86,30.32,10.0,SSE,4.6,-,N/A,,Overcast,160,2012-10-28 13:31:00
8:51 AM,30.2,24.8,80,30.32,10.0,Calm,Calm,-,N/A,,Overcast,0,2012-10-28 13:51:00
9:31 AM,33.8,26.6,75,30.32,10.0,SSE,5.8,-,N/A,,Overcast,160,2012-10-28 14:31:00
9:51 AM,33.8,24.8,70,30.32,10.0,SSE,6.9,-,N/A,,Overcast,160,2012-10-28 14:51:00
10:11 AM,33.8,24.8,70,30.32,10.0,South,6.9,-,N/A,,Mostly Cloudy,180,2012-10-28 15:11:00
10:31 AM,35.6,24.8,65,30.32,10.0,South,6.9,-,N/A,,Mostly Cloudy,170,2012-10-28 15:31:00
10:51 AM,35.6,24.8,65,30.32,10.0,South,9.2,-,N/A,,Overcast,170,2012-10-28 15:51:00
11:11 AM,37.4,24.8,60,30.32,10.0,South,6.9,-,N/A,,Mostly Cloudy,170,2012-10-28 16:11:00
11:31 AM,37.4,24.8,60,30.32,10.0,South,8.1,-,N/A,,Mostly Cloudy,190,2012-10-28 16:31:00
11:51 AM,37.4,24.8,60,30.32,10.0,South,10.4,-,N/A,,Overcast,180,2012-10-28 16:51:00
12:11 PM,37.4,24.8,60,30.32,10.0,South,10.4,-,N/A,,Overcast,190,2012-10-28 17:11:00
12:31 PM,37.4,24.8,60,30.32,10.0,SSW,9.2,-,N/A,,Overcast,200,2012-10-28 17:31:00
12:52 PM,37.4,26.6,65,30.31,10.0,South,5.8,-,N/A,,Mostly Cloudy,170,2012-10-28 17:52:00
1:11 PM,37.4,26.6,65,30.31,10.0,South,10.4,-,N/A,,Overcast,180,2012-10-28 18:11:00
1:31 PM,39.2,24.8,56,30.31,10.0,SSW,11.5,-,N/A,,Overcast,200,2012-10-28 18:31:00
1:52 PM,37.4,26.6,65,30.31,10.0,South,10.4,-,N/A,,Overcast,190,2012-10-28 18:52:00
2:11 PM,39.2,26.6,61,30.30,10.0,SSE,10.4,-,N/A,,Overcast,160,2012-10-28 19:11:00
2:31 PM,41.0,26.6,57,30.29,10.0,South,10.4,-,N/A,,Mostly Cloudy,170,2012-10-28 19:31:00
2:52 PM,41.0,24.8,53,30.29,10.0,South,6.9,-,N/A,,Mostly Cloudy,170,2012-10-28 19:52:00
3:11 PM,42.8,24.8,49,30.28,10.0,SSE,8.1,-,N/A,,Mostly Cloudy,150,2012-10-28 20:11:00
3:31 PM,42.8,24.8,49,30.28,10.0,South,8.1,-,N/A,,Overcast,170,2012-10-28 20:31:00
3:52 PM,42.8,24.8,49,30.28,10.0,SSE,10.4,-,N/A,,Overcast,150,2012-10-28 20:52:00
4:11 PM,42.8,24.8,49,30.28,10.0,South,9.2,-,N/A,,Overcast,170,2012-10-28 21:11:00
4:31 PM,42.8,24.8,49,30.28,10.0,South,8.1,-,N/A,,Overcast,170,2012-10-28 21:31:00
4:52 PM,41.0,24.8,53,30.28,10.0,SSE,8.1,-,N/A,,Mostly Cloudy,150,2012-10-28 21:52:00
5:11 PM,41.0,24.8,53,30.28,10.0,SE,6.9,-,N/A,,Overcast,130,2012-10-28 22:11:00
5:31 PM,41.0,24.8,53,30.28,10.0,ESE,4.6,-,N/A,,Mostly Cloudy,120,2012-10-28 22:31:00
5:51 PM,39.2,24.8,56,30.27,10.0,Calm,Calm,-,N/A,,Overcast,0,2012-10-28 22:51:00
6:11 PM,39.2,24.8,56,30.27,10.0,East,4.6,-,N/A,,Overcast,90,2012-10-28 23:11:00
6:31 PM,39.2,24.8,56,30.28,10.0,Calm,Calm,-,N/A,,Overcast,0,2012-10-28 23:31:00
6:51 PM,37.4,24.8,60,30.27,10.0,East,3.5,-,N/A,,Overcast,80,2012-10-28 23:51:00
7:12 PM,37.4,23.0,56,30.28,10.0,Calm,Calm,-,N/A,,Mostly Cloudy,0,2012-10-29 00:12:00
7:31 PM,37.4,23.0,56,30.28,10.0,East,3.5,-,N/A,,Overcast,100,2012-10-29 00:31:00
7:51 PM,37.4,23.0,56,30.28,10.0,East,3.5,-,N/A,,Overcast,90,2012-10-29 00:51:00
8:12 PM,37.4,23.0,56,30.28,10.0,East,3.5,-,N/A,,Overcast,100,2012-10-29 01:12:00
8:51 PM,37.4,24.8,60,30.29,10.0,Calm,Calm,-,N/A,,Overcast,0,2012-10-29 01:51:00
9:12 PM,37.4,24.8,60,30.28,10.0,ESE,3.5,-,N/A,,Overcast,110,2012-10-29 02:12:00
9:31 PM,35.6,23.0,60,30.28,10.0,East,4.6,-,N/A,,Overcast,90,2012-10-29 02:31:00
9:51 PM,35.6,23.0,60,30.28,10.0,East,4.6,-,N/A,,Mostly Cloudy,90,2012-10-29 02:51:00
10:12 PM,33.8,23.0,65,30.28,10.0,East,3.5,-,N/A,,Clear,100,2012-10-29 03:12:00
10:31 PM,33.8,23.0,65,30.28,10.0,East,3.5,-,N/A,,Clear,100,2012-10-29 03:31:00
10:51 PM,33.8,23.0,65,30.28,10.0,East,3.5,-,N/A,,Clear,100,2012-10-29 03:51:00
11:12 PM,33.8,23.0,65,30.29,10.0,East,3.5,-,N/A,,Mostly Cloudy,100,2012-10-29 04:12:00
11:31 PM,33.8,23.0,65,30.29,10.0,East,3.5,-,N/A,,Mostly Cloudy,100,2012-10-29 04:31:00
11:51 PM,32.0,24.8,75,30.29,10.0,East,3.5,-,N/A,,Mostly Cloudy,100,2012-10-29 04:51:00